Weather History for KSZL - November, 2011

Change the Weather History Date:

Tuesday, November 15, 2011

  Actual Average Record
Temperature  
Mean Temperature 52 °F -  
Max Temperature 66 °F 53 °F 107 °F (2005)
Min Temperature 39 °F 35 °F 20 °F (2014)
Degree Days  
Heating Degree Days 12    
Growing Degree Days 2 (Base 50)    
Moisture  
Dew Point 37 °F    
Average Humidity 62    
Maximum Humidity 97    
Minimum Humidity 35    
Precipitation  
Precipitation 0.00 in - - ()
Sea Level Pressure  
Sea Level Pressure 29.80 in    
Wind  
Wind Speed 7 mph (SW)    
Max Wind Speed 16 mph    
Max Gust Speed -    
Visibility 10 miles    
Events      
Averages and records for this station are not official NWS values.
T = Trace of Precipitation, MM = Missing Value Source: NWS Daily Summary

Daily Weather History Graph

Daily Weather History Graph

Search for Another Location

Airport or City:

Trip Planner

Search our weather history database for the weather conditions in past years. The results will help you decide how hot, cold, wet, or windy it might be!

Date:

Astronomy

Nov. 15, 2011 Rise Set
Actual Time 6:56 AM CST 5:00 PM CST
Civil Twilight 6:27 AM CST 5:29 PM CST
Nautical Twilight 5:55 AM CST 6:01 PM CST
Astronomical Twilight 5:24 AM CST 6:32 PM CST
Moon 9:10 PM CST (11/15) 10:55 AM CST (11/15)
Length of Visible Light 11h 01m
Length of Day
10h 04m
Waning Gibbous, 79% of the Moon is Illuminated
Nov 15
Waning Gibbous
Nov 18
Last Quarter
Nov 25
New
Dec 2
First Quarter
Dec 10
Full

Hourly Weather History & Observations

Time (CST) Temp. Windchill Dew Point Humidity Pressure Visibility Wind Dir Wind Speed Gust Speed Precip Events Conditions
12:55 AM 43.3 °F 39.2 °F 37.6 °F 80% 29.75 in 10.0 mi South 6.9 mph - N/A   Clear
1:55 AM 41.9 °F 39.0 °F 37.6 °F 85% 29.75 in 10.0 mi South 4.6 mph - N/A   Clear
2:55 AM 39.6 °F 34.7 °F 37.4 °F 92% 29.74 in 10.0 mi South 6.9 mph - N/A   Clear
3:55 AM 40.5 °F 35.8 °F 36.7 °F 86% 29.72 in 10.0 mi South 6.9 mph - N/A   Clear
4:55 AM 41.0 °F 36.4 °F 36.7 °F 85% 29.73 in 10.0 mi South 6.9 mph - N/A   Clear
5:55 AM 40.6 °F 35.4 °F 36.5 °F 85% 29.73 in 10.0 mi SSE 8.1 mph - N/A   Clear
7:55 AM 40.1 °F - 39.2 °F 97% 29.78 in 10.0 mi Calm Calm - N/A   Clear
8:55 AM 49.8 °F - 45.0 °F 83% 29.78 in 10.0 mi SW 3.5 mph - N/A   Clear
9:55 AM 55.4 °F - 42.4 °F 62% 29.77 in 10.0 mi SSW 8.1 mph - N/A   Clear
10:55 AM 59.0 °F - 43.7 °F 57% 29.78 in 10.0 mi South 9.2 mph - N/A   Clear
11:55 AM 62.2 °F - 40.8 °F 45% 29.77 in 10.0 mi SW 9.2 mph - N/A   Clear
12:55 PM 64.0 °F - 39.2 °F 40% 29.75 in 10.0 mi WSW 6.9 mph - N/A   Clear
1:55 PM 65.1 °F - 39.4 °F 39% 29.74 in 10.0 mi Variable 5.8 mph - N/A   Clear
2:55 PM 66.4 °F - 38.7 °F 36% 29.74 in 10.0 mi SW 9.2 mph - N/A   Clear
3:55 PM 65.1 °F - 37.0 °F 35% 29.75 in 10.0 mi SW 8.1 mph - N/A   Clear
4:55 PM 59.0 °F - 38.3 °F 46% 29.77 in 10.0 mi SW 6.9 mph - N/A   Clear
5:55 PM 58.5 °F - 37.4 °F 45% 29.81 in 10.0 mi West 4.6 mph - N/A   Clear
6:55 PM 53.2 °F - 36.5 °F 53% 29.84 in 10.0 mi NNW 5.8 mph - N/A   Clear
7:55 PM 52.3 °F - 35.1 °F 52% 29.88 in 10.0 mi NNW 12.7 mph - N/A   Clear
8:55 PM 50.4 °F - 33.6 °F 53% 29.91 in 10.0 mi North 16.1 mph - N/A   Clear
9:55 PM 47.3 °F - 30.2 °F 52% 29.94 in 10.0 mi North 12.7 mph - N/A   Clear
10:55 PM 45.1 °F 39.5 °F 30.0 °F 55% 29.96 in 10.0 mi North 11.5 mph - N/A   Clear
11:55 PM 43.3 °F 37.2 °F 28.8 °F 56% 29.98 in 10.0 mi North 11.5 mph - N/A   Clear